Precipitable_Water
1.77 1.70 1.56 1.47 1.28 1.07 0.95 0.98 1.02 1.03 1.03 1.02 1.06 1.12 1.19 1.20 1.26 1.22 1.25 1.38 1.41 1.61 1.95 2.10 2.12 2.25 2.04 1.76 1.50 1.58 1.21 0.97 0.87 1.01 1.08 1.25 1.27 1.29 1.28 1.22 1.15 1.14 1.17
1.93 1.96 1.92 1.88 1.70 1.36 1.07 1.04 1.11 1.10 1.16 1.19 1.25 1.27 1.36 1.43 1.52 1.52 1.44 1.41 1.41 1.54 1.89 2.08 2.09 2.15 2.02 1.82 1.51 1.56 1.19 1.12 1.01 0.84 0.88 1.02 1.30 1.38 1.31 1.21 1.25 1.21 1.25
1.93 2.01 2.07 2.02 2.01 1.80 1.63 1.45 1.42 1.48 1.52 1.50 1.52 1.57 1.66 1.79 1.88 1.92 1.86 1.75 1.51 1.62 1.92 2.05 2.08 2.15 2.09 1.81 1.55 1.42 1.19 1.07 1.08 0.90 0.80 0.95 1.27 1.33 1.36 1.40 1.31 1.28 1.28
1.79 1.85 1.95 2.08 2.12 2.15 2.05 1.94 1.82 1.75 1.73 1.75 1.79 1.79 1.87 1.97 2.03 1.99 2.04 2.00 1.78 1.77 2.00 2.06 2.14 2.13 2.11 1.79 1.56 1.50 1.31 1.07 1.09 0.91 0.86 0.81 1.02 1.28 1.37 1.36 1.31 1.38 1.27
1.70 1.75 1.92 2.16 2.25 2.21 2.18 2.26 2.21 2.19 2.14 2.17 2.05 2.07 1.99 2.02 2.07 2.19 2.22 2.19 2.02 1.89 2.05 2.07 2.11 2.10 2.11 1.81 1.54 1.51 1.25 1.06 1.13 0.99 0.86 0.81 0.93 1.25 1.35 1.42 1.42 1.47 1.34
1.76 1.73 1.84 1.94 2.06 2.03 2.18 1.93 1.98 2.08 2.07 2.11 1.94 1.91 1.87 2.05 2.02 2.21 2.24 2.19 2.08 2.04 2.02 2.02 1.98 1.96 1.95 1.78 1.46 1.38 1.26 0.96 1.10 1.04 0.87 0.79 0.88 1.10 1.37 1.35 1.39 1.38 1.26
1.68 1.69 1.79 1.79 1.80 1.81 1.80 1.66 1.71 1.68 2.01 2.10 2.08 2.03 2.02 2.11 2.03 2.06 2.14 2.12 2.17 2.11 2.03 2.03 1.94 1.92 1.89 1.66 1.41 1.33 1.26 1.01 1.13 1.15 0.93 0.86 0.85 1.03 1.20 1.37 1.41 1.42 1.36
1.61 1.59 1.54 1.51 1.43 1.47 1.51 1.47 1.57 1.78 2.04 2.06 2.12 2.15 2.10 2.14 2.04 2.04 2.13 2.10 2.12 2.09 2.00 2.00 2.00 1.86 1.85 1.68 1.58 1.39 1.24 1.06 1.05 1.20 1.08 0.97 0.94 0.95 1.06 1.34 1.49 1.55 1.51
1.36 1.44 1.52 1.55 1.48 1.50 1.52 1.58 1.70 1.85 2.00 2.12 2.09 2.14 2.12 2.01 1.97 1.98 2.01 2.00 2.00 2.01 2.08 2.03 1.92 1.81 1.88 1.84 1.69 1.49 1.24 1.06 1.08 1.16 1.12 1.01 0.94 0.91 0.93 1.11 1.26 1.40 1.36
1.26 1.29 1.40 1.48 1.50 1.51 1.54 1.72 1.83 1.93 1.96 2.03 2.08 2.04 2.00 1.94 1.92 1.85 1.89 1.82 1.82 1.91 1.99 2.03 1.96 1.85 1.84 1.76 1.72 1.49 1.16 1.11 0.98 1.01 0.96 0.91 0.87 0.86 0.94 1.01 1.05 1.18 1.30
1.29 1.31 1.16 1.11 1.17 1.31 1.29 1.37 1.49 1.64 1.80 1.94 1.92 2.00 1.96 1.95 1.97 1.89 1.78 1.72 1.82 1.86 1.94 2.01 2.00 1.87 1.83 1.67 1.76 1.53 1.29 1.19 1.07 1.13 1.11 1.02 0.94 0.95 0.97 0.93 1.03 1.12 1.20
1.04 1.06 1.06 1.02 1.03 0.99 0.91 1.00 1.09 1.21 1.38 1.65 1.80 1.88 2.00 2.00 1.96 1.70 1.72 1.78 1.87 1.90 1.96 1.99 1.98 1.92 1.80 1.67 1.68 1.60 1.38 1.23 1.21 1.23 1.19 1.07 0.96 1.01 1.04 0.94 0.93 1.06 1.28
0.81 0.81 0.88 0.90 0.91 0.98 0.84 0.86 0.84 0.94 0.98 1.22 1.42 1.63 1.84 1.97 1.96 1.84 1.75 1.74 1.94 1.94 1.97 2.06 2.02 1.90 1.80 1.70 1.65 1.58 1.38 1.31 1.29 1.26 1.22 1.14 1.14 1.13 1.07 1.00 0.93 1.00 1.18
0.84 0.81 0.81 0.81 0.79 0.90 0.87 0.83 0.88 0.86 0.88 0.97 1.14 1.35 1.59 1.77 1.86 1.82 1.81 1.81 1.87 2.01 1.98 1.98 1.93 1.84 1.77 1.65 1.63 1.57 1.40 1.36 1.31 1.29 1.29 1.25 1.22 1.13 1.06 1.02 0.95 0.95 0.95
0.90 0.87 0.82 0.81 0.75 0.78 0.84 0.85 0.91 0.96 0.95 0.91 1.03 1.15 1.29 1.43 1.60 1.69 1.65 1.64 1.72 1.86 1.89 1.82 1.75 1.67 1.57 1.53 1.60 1.54 1.45 1.43 1.36 1.33 1.34 1.25 1.21 1.18 1.13 1.10 1.00 0.89 0.85
1.02 0.92 0.85 0.83 0.80 0.83 0.82 0.83 0.90 0.91 0.99 1.05 1.11 1.13 1.25 1.36 1.52 1.57 1.61 1.64 1.68 1.80 1.76 1.68 1.62 1.61 1.54 1.53 1.50 1.48 1.42 1.41 1.44 1.40 1.38 1.31 1.26 1.26 1.17 1.15 0.99 0.97 0.83
0.90 0.81 0.82 0.74 0.74 0.79 0.79 0.75 0.71 0.78 0.87 0.95 1.04 1.15 1.17 1.23 1.34 1.52 1.54 1.58 1.62 1.71 1.67 1.67 1.58 1.59 1.60 1.58 1.47 1.46 1.41 1.41 1.50 1.47 1.42 1.35 1.34 1.34 1.21 1.13 1.00 0.95 0.91
0.85 0.80 0.72 0.66 0.67 0.70 0.69 0.72 0.78 0.71 0.64 0.73 0.94 1.03 1.12 1.21 1.22 1.36 1.49 1.50 1.45 1.54 1.61 1.71 1.69 1.59 1.62 1.58 1.54 1.49 1.55 1.50 1.53 1.48 1.47 1.44 1.37 1.34 1.26 1.18 1.04 0.96 0.97
0.72 0.67 0.66 0.67 0.68 0.69 0.72 0.73 0.76 0.72 0.67 0.68 0.77 0.90 0.99 1.09 1.18 1.28 1.38 1.41 1.41 1.42 1.50 1.58 1.76 1.72 1.64 1.64 1.63 1.59 1.56 1.45 1.48 1.52 1.59 1.53 1.46 1.45 1.34 1.33 1.22 1.12 1.11
0.68 0.69 0.68 0.66 0.69 0.67 0.69 0.69 0.68 0.65 0.62 0.65 0.67 0.71 0.84 0.96 1.02 1.10 1.24 1.38 1.39 1.47 1.50 1.51 1.61 1.78 1.75 1.70 1.65 1.64 1.59 1.46 1.47 1.51 1.50 1.63 1.57 1.52 1.37 1.39 1.30 1.17 1.17
0.65 0.66 0.63 0.65 0.65 0.64 0.65 0.62 0.63 0.62 0.63 0.64 0.66 0.73 0.76 0.81 0.94 1.03 1.07 1.30 1.35 1.41 1.48 1.52 1.55 1.66 1.78 1.81 1.71 1.64 1.56 1.47 1.42 1.45 1.55 1.59 1.44 1.48 1.43 1.37 1.33 1.21 1.17
0.63 0.62 0.61 0.59 0.60 0.60 0.60 0.63 0.64 0.64 0.64 0.63 0.66 0.70 0.72 0.75 0.83 0.93 1.08 1.11 1.28 1.41 1.49 1.50 1.53 1.60 1.68 1.68 1.66 1.58 1.50 1.47 1.42 1.45 1.52 1.54 1.49 1.45 1.50 1.47 1.30 1.18 1.09
0.62 0.59 0.58 0.57 0.56 0.55 0.57 0.60 0.63 0.65 0.65 0.65 0.67 0.68 0.68 0.69 0.74 0.85 0.95 1.03 1.16 1.33 1.44 1.49 1.53 1.58 1.67 1.68 1.64 1.55 1.45 1.44 1.45 1.48 1.49 1.48 1.49 1.47 1.45 1.33 1.22 1.22 1.12
0.59 0.56 0.54 0.53 0.53 0.54 0.55 0.58 0.63 0.66 0.67 0.66 0.67 0.70 0.71 0.71 0.72 0.76 0.88 0.96 1.05 1.22 1.38 1.43 1.47 1.55 1.61 1.62 1.59 1.55 1.53 1.50 1.51 1.50 1.52 1.51 1.49 1.48 1.43 1.34 1.22 1.21 1.16
0.58 0.53 0.51 0.51 0.52 0.53 0.56 0.60 0.65 0.68 0.69 0.68 0.68 0.70 0.72 0.74 0.74 0.78 0.81 0.93 0.97 1.14 1.31 1.38 1.44 1.53 1.59 1.60 1.59 1.57 1.52 1.47 1.47 1.49 1.49 1.48 1.46 1.45 1.45 1.34 1.26 1.21 1.14
0.56 0.54 0.52 0.50 0.50 0.52 0.54 0.55 0.60 0.69 0.71 0.71 0.71 0.72 0.72 0.73 0.74 0.77 0.82 0.87 0.93 1.11 1.26 1.34 1.41 1.49 1.60 1.61 1.62 1.59 1.59 1.51 1.45 1.46 1.47 1.43 1.38 1.34 1.33 1.29 1.26 1.13 1.16
Wind_Speed
15 14 15 15 17 17 17 17 18 18 17 18 18 18 18 18 18 18 18 18 18 17 17 18 20 21 20 22 24 23 22 23 21 20 19 16 12 10 9 9 7 5 6
16 16 16 15 15 16 17 18 17 17 17 17 18 18 19 19 19 19 19 19 18 17 17 18 19 20 19 20 22 22 20 21 20 19 17 15 12 10 9 9 7 6 7
16 18 18 17 16 15 15 15 17 17 18 19 19 20 21 21 21 21 21 19 19 17 17 18 18 18 17 19 20 22 19 19 19 18 17 14 13 11 10 8 7 7 7
15 14 16 19 18 17 16 17 17 18 19 19 20 21 22 22 22 22 21 20 19 17 17 17 17 17 15 16 18 20 18 17 17 17 17 15 13 12 11 9 7 6 6
18 17 16 18 18 17 17 17 18 19 20 19 19 19 20 21 21 20 20 20 19 17 16 15 16 16 13 14 16 18 18 16 14 15 16 15 13 12 11 11 10 6 7
20 20 20 20 21 21 19 22 24 23 24 22 23 23 23 22 21 21 20 20 20 16 14 15 15 15 12 13 13 15 17 15 14 15 14 14 13 14 11 11 12 10 11
19 21 22 23 23 26 27 27 28 26 25 26 25 24 21 21 20 21 20 19 18 16 15 15 16 16 10 10 11 13 15 14 14 13 13 13 12 12 11 11 12 12 11
16 18 19 21 22 23 25 26 26 26 25 25 24 23 21 21 20 21 20 19 18 16 16 16 14 13 11 9 9 10 12 13 12 12 12 12 11 11 11 10 10 12 12
16 17 18 19 18 19 20 21 22 23 23 23 22 21 20 19 19 17 17 18 19 20 19 18 17 15 12 10 9 8 9 11 11 11 11 10 10 10 11 10 10 8 10
15 15 16 17 17 18 18 19 18 18 20 19 20 19 18 17 17 16 19 20 21 21 20 19 18 15 12 10 8 6 7 8 10 9 10 9 9 9 10 11 9 9 10
17 16 16 16 17 17 18 17 17 17 17 18 17 18 18 18 18 17 19 19 18 20 20 18 16 15 13 12 9 6 5 6 7 8 9 9 9 9 9 10 11 7 9
14 15 16 16 17 18 18 18 17 16 15 14 14 16 16 15 14 13 13 14 16 16 13 13 13 14 13 13 9 6 3 4 6 6 6 7 8 9 9 9 9 8 7
15 16 17 18 18 18 19 19 19 18 16 16 15 15 15 15 14 13 13 12 13 11 7 7 11 12 12 13 10 7 4 3 4 5 5 5 7 8 8 8 8 9 6
16 16 17 18 19 19 19 19 19 19 18 18 18 17 16 13 12 14 13 12 11 8 4 5 7 12 12 13 11 8 6 4 4 4 4 4 6 7 6 6 6 6 7
16 16 17 18 18 19 19 20 20 20 20 21 20 20 19 18 17 16 15 14 11 7 6 7 8 10 12 13 12 10 9 7 6 5 4 4 4 4 5 4 4 4 6
17 16 17 18 19 19 20 20 21 22 22 22 22 22 22 21 20 19 19 17 15 13 11 11 11 12 14 14 14 13 12 10 7 7 5 5 4 4 3 3 1 2 3
17 16 17 19 19 20 19 19 20 21 22 23 23 24 24 24 23 22 21 21 19 18 18 16 16 15 15 14 13 14 14 12 10 9 7 7 5 5 3 2 1 0 1
16 16 17 17 17 18 20 20 19 20 21 22 23 24 24 25 25 25 23 22 22 22 20 21 20 19 18 17 16 15 15 14 13 11 10 9 8 6 5 4 4 3 2
15 14 16 17 19 20 20 19 19 19 20 21 21 22 23 24 25 25 24 23 24 24 24 23 23 24 22 20 18 16 15 16 15 14 14 12 10 9 9 7 7 6 5
13 14 16 17 17 17 18 19 19 20 21 21 21 21 22 22 23 23 24 24 23 25 25 25 25 25 24 23 21 20 17 18 17 16 14 14 14 12 11 11 9 9 9
13 14 15 15 16 18 20 22 23 23 23 22 23 22 22 23 23 24 25 24 24 25 25 25 25 25 25 27 26 23 21 19 19 18 18 17 15 15 13 13 11 11 12
12 13 14 15 18 20 22 23 23 24 24 25 25 25 25 25 25 25 25 26 26 26 27 27 26 25 25 25 25 24 23 22 21 20 19 18 18 18 17 14 13 12 11
10 12 14 16 18 21 22 24 25 25 25 25 26 27 27 26 27 27 27 28 28 27 27 27 27 26 25 24 24 23 22 22 21 21 21 20 19 18 17 16 15 14 13
10 12 14 16 19 21 23 25 26 25 25 26 26 26 27 28 28 28 28 29 30 30 29 29 28 27 27 26 25 23 22 21 21 21 21 21 20 19 18 18 16 15 14
10 12 14 17 20 22 24 25 26 24 23 24 26 26 27 27 28 29 29 29 30 31 30 30 29 28 28 27 26 24 22 20 20 20 21 21 21 21 20 19 18 16 15
10 12 15 17 20 22 24 25 25 23 22 23 23 24 25 27 27 27 27 29 29 30 30 31 30 30 29 29 27 27 24 22 21 20 20 21 21 22 21 20 20 18 18
Wind_Direction
248 250 253 257 260 261 263 265 269 272 276 280 283 286 290 293 295 298 301 306 311 315 321 330 336 341 340 346 350 350 352 354 357 357 358 1 7 8 9 14 24 34 33
252 249 253 258 264 264 263 265 267 270 274 278 281 285 288 291 293 295 298 301 305 309 313 322 328 335 338 343 348 351 353 356 0 4 5 9 11 15 19 28 37 46 48
251 254 253 257 260 266 268 268 269 271 275 278 281 284 287 289 290 291 292 295 299 302 306 315 323 331 333 340 347 353 354 359 4 9 11 11 15 22 23 25 40 52 52
253 255 259 255 260 265 267 273 275 276 277 279 282 285 287 289 289 289 289 289 294 297 303 310 319 324 331 337 344 351 354 356 4 11 14 19 22 24 30 33 41 49 44
254 262 266 261 260 265 271 277 280 281 280 283 287 288 289 291 291 290 288 288 289 292 300 311 320 323 327 334 341 348 353 354 358 8 13 18 21 24 31 36 37 34 29
258 263 265 270 267 261 270 272 287 279 280 284 284 289 285 291 286 291 287 288 291 288 292 305 316 322 316 328 337 349 355 358 1 9 12 20 25 28 37 45 41 41 44
259 263 267 269 273 271 274 282 277 280 280 280 281 284 282 285 285 289 289 288 281 286 287 296 305 316 304 317 333 346 355 1 5 5 17 19 28 31 36 44 43 44 47
267 270 272 274 277 280 278 282 284 276 277 282 278 280 281 282 286 288 282 285 282 280 282 288 292 297 297 301 323 340 356 3 5 11 18 22 28 29 35 41 46 44 46
270 273 275 279 282 285 288 289 282 284 281 281 278 278 282 280 282 287 287 286 283 283 281 278 278 287 274 271 297 322 346 0 6 14 20 27 30 35 39 36 30 42 47
268 273 277 279 282 287 291 289 287 286 285 281 279 277 278 279 284 286 287 289 287 284 280 272 272 261 255 259 275 297 331 351 3 11 20 29 32 39 37 34 38 48 57
265 269 275 279 283 283 289 292 291 289 288 283 279 280 279 279 282 286 294 293 293 289 277 267 255 242 244 244 250 269 311 347 3 16 25 32 35 34 35 34 38 51 62
267 266 273 279 284 286 287 288 288 287 287 287 282 282 282 277 280 294 297 300 305 301 272 258 246 234 234 217 227 244 281 338 1 7 15 25 29 33 33 34 40 56 71
266 270 273 278 284 284 285 284 283 283 281 281 281 282 286 280 274 285 292 300 309 308 305 235 225 217 206 202 218 226 258 297 336 351 0 13 22 24 26 36 48 51 84
267 272 275 278 282 284 283 282 280 279 278 277 276 275 276 279 277 278 287 291 305 294 267 223 209 199 203 206 210 226 240 269 303 324 340 0 6 11 24 36 45 58 66
265 274 280 281 284 285 284 281 277 275 275 274 272 273 272 272 275 274 278 278 279 275 243 225 214 211 214 219 218 230 239 257 277 298 305 324 342 2 10 23 41 62 65
266 273 281 284 284 286 287 283 276 274 273 271 269 268 268 270 272 273 269 265 263 253 250 234 227 228 226 226 232 237 237 251 263 268 279 288 292 311 345 351 41 57 88
267 273 283 286 283 285 288 287 283 279 274 272 270 267 266 267 269 270 267 260 255 249 247 241 236 236 231 230 232 239 238 247 254 255 260 261 267 284 292 307 264 199 142
271 274 285 288 286 288 292 288 284 283 281 278 273 270 269 266 266 265 265 257 252 248 249 244 241 238 235 236 238 243 244 241 244 246 249 254 255 255 255 265 246 239 210
271 276 284 289 293 293 292 290 288 286 284 282 279 273 273 270 265 260 258 256 253 249 247 247 245 241 239 239 240 244 244 241 240 242 248 245 250 252 245 250 249 238 235
266 274 286 291 294 297 295 293 292 289 285 283 281 279 277 273 267 263 256 256 255 250 248 245 246 244 240 238 239 240 245 239 241 243 244 243 236 247 240 240 244 244 244
268 279 290 294 297 299 301 298 293 289 286 283 281 279 278 274 270 264 258 257 253 251 248 247 246 245 243 238 239 239 241 243 243 242 242 239 238 239 242 237 249 248 241
271 284 293 298 302 304 304 303 299 291 286 283 280 279 278 274 271 267 261 255 254 251 247 245 244 242 240 238 237 239 241 243 244 242 236 236 237 236 238 241 241 245 246
276 290 299 303 306 309 308 308 304 295 289 285 282 279 276 274 271 267 263 257 253 250 246 243 240 238 237 235 236 237 239 241 241 238 235 234 233 233 234 234 238 240 248
284 296 303 308 313 313 313 312 308 300 292 286 284 281 278 273 270 267 263 259 251 247 244 240 238 236 234 233 233 235 237 239 238 236 234 233 231 230 231 233 236 239 245
290 302 310 314 316 317 317 318 315 306 298 293 288 283 278 274 272 268 263 257 251 244 240 237 235 233 230 230 230 231 234 237 237 235 233 232 229 228 231 235 235 238 240
294 304 313 319 321 321 320 319 319 310 301 298 293 287 283 275 271 267 263 255 248 240 237 234 232 231 230 229 231 232 232 234 234 235 232 231 230 230 233 235 234 237 238